Location: Shenandoah County Park
(38.9356°N, 78.4524°W)
Time: 13:28:34
(UTC-05:00)

Tiros 1 despin weight - All Passes

Search period start: 30 January 2023 00:00
Search period end: 09 February 2023 00:00
Orbit: 589 x 636 km, 48.2° (Epoch: 29 January)

Date Brightness Start Highest point End Pass type
(mag) Time Alt. Az. Time Alt. Az. Time Alt. Az.
30 Jan - 01:36:36 10° W 01:39:03 15° SW 01:41:28 10° SSW night (unlit)
30 Jan - 15:42:49 10° SSE 15:44:21 12° SE 15:45:53 10° ESE daylight
30 Jan - 17:20:38 10° SW 17:25:09 67° SE 17:29:38 10° ENE daylight
30 Jan - 19:02:40 10° W 19:06:50 35° NNW 19:10:58 10° NE visible
30 Jan - 20:45:28 10° NW 20:49:10 24° N 20:52:49 10° ENE visible
30 Jan - 22:27:09 10° NW 22:31:24 42° NNE 22:35:35 10° E night (unlit)
31 Jan - 00:08:39 10° WNW 00:12:52 45° SW 00:17:02 10° SSE night (unlit)
31 Jan - 15:55:11 10° S 15:58:48 23° SE 16:02:23 10° E daylight
31 Jan - 17:35:22 10° WSW 17:39:55 71° NNW 17:44:26 10° NE daylight
31 Jan - 19:18:00 10° WNW 19:21:54 28° N 19:25:46 10° NE visible
31 Jan - 21:00:28 10° NW 21:04:18 27° N 21:08:05 10° ENE visible
31 Jan - 22:41:53 10° NW 22:46:18 66° NNE 22:50:40 10° ESE night (unlit)
01 Feb - 00:23:53 10° W 00:27:25 24° SW 00:30:55 10° S night (unlit)
01 Feb - 16:09:01 10° SSW 16:13:21 43° SE 16:17:40 10° ENE daylight
01 Feb - 17:50:26 10° W 17:54:49 45° NNW 17:59:09 10° NE daylight
01 Feb - 19:33:18 10° WNW 19:37:02 25° N 19:40:44 10° NE visible
01 Feb - 21:15:18 10° NW 21:19:22 33° NNE 21:23:24 10° E visible
01 Feb - 22:56:39 10° WNW 23:01:05 71° SW 23:05:26 10° SE night (unlit)
02 Feb - 00:40:18 10° WSW 00:41:51 12° SW 00:43:24 10° SSW night (unlit)
02 Feb - 14:44:36 10° SSE 14:47:08 15° SE 14:49:39 10° E daylight
02 Feb - 16:23:26 10° SW 16:28:02 81° SE 16:32:35 10° ENE daylight
02 Feb - 18:05:42 10° W 18:09:49 32° NNW 18:13:53 10° NE visible
02 Feb - 19:48:26 10° NW 19:52:11 25° N 19:55:53 10° ENE visible
02 Feb - 21:30:02 10° NW 21:34:21 48° NNE 21:38:38 10° E visible
02 Feb - 23:11:38 10° WNW 23:15:43 37° SW 23:19:46 10° SSE night (unlit)
03 Feb - 14:57:40 10° SSW 15:01:36 28° SE 15:05:30 10° ENE daylight
03 Feb - 16:38:17 10° WSW 16:42:50 61° NNW 16:47:20 10° NE daylight
03 Feb - 18:21:02 10° WNW 18:24:54 27° N 18:28:43 10° NE visible
03 Feb - 20:03:22 10° NW 20:07:17 28° NNE 20:11:10 10° ENE visible
03 Feb - 21:44:44 10° NW 21:49:13 78° NNE 21:53:37 10° ESE visible
03 Feb - 23:27:04 10° W 23:30:13 19° SW 23:33:21 10° S night (unlit)
04 Feb - 15:11:42 10° SW 15:16:11 53° SE 15:20:38 10° ENE daylight
04 Feb - 16:53:25 10° W 16:57:45 40° NNW 17:02:01 10° NE daylight
04 Feb - 18:36:16 10° WNW 18:40:01 25° N 18:43:44 10° NE visible
04 Feb - 20:18:08 10° NW 20:22:20 37° NNE 20:26:28 10° E visible
04 Feb - 21:59:33 10° WNW 22:03:56 59° SW 22:08:15 10° SE night (unlit)
05 Feb - 13:46:44 10° S 13:49:52 18° SE 13:53:00 10° E daylight
05 Feb - 15:26:15 10° WSW 15:30:53 86° NNW 15:35:27 10° ENE daylight
05 Feb - 17:08:42 10° WNW 17:12:45 30° NNW 17:16:46 10° NE daylight
05 Feb - 18:51:20 10° NW 18:55:09 26° N 18:58:55 10° ENE visible
05 Feb - 20:32:50 10° NW 20:37:16 55° NNE 20:41:37 10° ESE visible
05 Feb - 22:14:36 10° WNW 22:18:31 31° SW 22:22:23 10° SSE night (unlit)
06 Feb - 14:00:11 10° SSW 14:04:21 34° SE 14:08:31 10° ENE daylight
06 Feb - 15:41:11 10° WSW 15:45:42 53° NNW 15:50:10 10° NE daylight
06 Feb - 17:24:00 10° WNW 17:27:51 26° N 17:31:39 10° NE daylight
06 Feb - 19:06:12 10° NW 19:10:14 31° NNE 19:14:13 10° ENE visible
06 Feb - 20:47:34 10° WNW 20:52:04 89° SSW 20:56:30 10° SE visible
06 Feb - 22:30:18 10° W 22:32:58 16° SW 22:35:37 10° S night (unlit)
07 Feb - 12:36:55 10° SE 12:38:11 11° SE 12:39:28 10° ESE daylight
07 Feb - 14:14:23 10° SW 14:18:58 64° SE 14:23:30 10° ENE daylight
07 Feb - 15:56:22 10° W 16:00:38 36° NNW 16:04:52 10° NE daylight
07 Feb - 17:39:10 10° NW 17:42:58 25° N 17:46:42 10° ENE daylight
07 Feb - 19:20:56 10° NW 19:25:14 41° NNE 19:29:28 10° E visible
07 Feb - 21:02:25 10° WNW 21:06:44 48° SW 21:10:59 10° SE visible
08 Feb - 12:49:00 10° S 12:52:35 22° SE 12:56:09 10° E daylight
08 Feb - 14:29:03 10° WSW 14:33:41 74° NNW 14:38:17 10° NE daylight
08 Feb - 16:11:39 10° WNW 16:15:39 29° NNW 16:19:38 10° NE daylight
08 Feb - 17:54:09 10° NW 17:58:04 27° N 18:01:55 10° ENE daylight
08 Feb - 19:35:37 10° NW 19:40:07 64° NNE 19:44:32 10° ESE visible
08 Feb - 21:17:35 10° W 21:21:16 25° SW 21:24:54 10° S visible
